Burns Flat, OK

7:37 AM CST on December 05, 2016 (GMT -0600)
Clinton-Sherman

Weather History for KCSM - August, 2014

Change the Weather History Date:

Thursday, August 28, 2014

  Actual Average Record
Temperature  
Mean Temperature 78 °F -  
Max Temperature 88 °F 91 °F 109 °F (2011)
Min Temperature 69 °F 67 °F 64 °F (2005)
Cooling Degree Days 14    
Growing Degree Days 28 (Base 50)    
Moisture  
Dew Point 63 °F    
Average Humidity 57    
Maximum Humidity 83    
Minimum Humidity 38    
Precipitation  
Precipitation 0.02 in - - ()
Sea Level Pressure  
Sea Level Pressure 29.90 in    
Wind  
Wind Speed 16 mph (SSE)    
Max Wind Speed 21 mph    
Max Gust Speed -    
Visibility 10 miles    
Events Rain , Thunderstorm    
Averages and records for this station are not official NWS values.
T = Trace of Precipitation, MM = Missing Value Source: NWS Daily Summary

Daily Weather History Graph

Daily Weather History Graph

Search for Another Location

Airport or City:

Trip Planner

Search our weather history database for the weather conditions in past years. The results will help you decide how hot, cold, wet, or windy it might be!

Date:

Astronomy

Aug. 28, 2014 Rise Set
Actual Time 7:06 AM CDT 8:09 PM CDT
Civil Twilight 6:40 AM CDT 8:35 PM CDT
Nautical Twilight 6:08 AM CDT 9:06 PM CDT
Astronomical Twilight 5:36 AM CDT 9:38 PM CDT
Moon 9:52 AM CDT (8/28) 9:42 PM CDT (8/28)
Length of Visible Light 13h 55m
Length of Day
13h 02m
Waxing Crescent, 9% of the Moon is Illuminated
Aug 28
Waxing Crescent
Sep 2
First Quarter
Sep 8
Full
Sep 15
Last Quarter
Sep 24
New

Hourly Weather History & Observations

Time (CDT) Temp. Heat Index Dew Point Humidity Pressure Visibility Wind Dir Wind Speed Gust Speed Precip Events Conditions
12:53 AM 82.9 °F 84.0 °F 63.0 °F 51% 29.94 in 10.0 mi South 18.4 mph - N/A   Clear
1:53 AM 81.0 °F 82.2 °F 63.0 °F 54% 29.94 in 10.0 mi SSE 15.0 mph - N/A   Clear
2:53 AM 80.1 °F 81.7 °F 64.0 °F 58% 29.92 in 10.0 mi South 18.4 mph - N/A   Clear
3:53 AM 80.1 °F 81.5 °F 63.0 °F 56% 29.91 in 10.0 mi South 17.3 mph - N/A   Mostly Cloudy
4:53 AM 79.0 °F - 62.1 °F 56% 29.91 in 10.0 mi South 13.8 mph - N/A   Overcast
5:53 AM 79.0 °F - 61.0 °F 54% 29.90 in 10.0 mi South 16.1 mph - N/A   Overcast
6:53 AM 79.0 °F - 60.1 °F 52% 29.91 in 10.0 mi South 15.0 mph - N/A   Overcast
7:53 AM 78.1 °F - 60.1 °F 54% 29.91 in 10.0 mi South 15.0 mph - 0.00 in   Mostly Cloudy
8:53 AM 80.1 °F 80.7 °F 59.0 °F 48% 29.90 in 10.0 mi South 16.1 mph - N/A   Partly Cloudy
10:53 AM 84.9 °F 83.9 °F 57.0 °F 38% 29.89 in 10.0 mi South 18.4 mph - N/A   Mostly Cloudy
11:53 AM 84.0 °F 83.8 °F 59.0 °F 43% 29.90 in 10.0 mi South 18.4 mph - N/A   Scattered Clouds
12:53 PM 77.0 °F - 66.9 °F 71% 29.89 in 10.0 mi South 13.8 mph - 0.00 in Rain Light Rain
1:53 PM 77.0 °F - 68.0 °F 74% 29.88 in 10.0 mi South 11.5 mph - 0.02 in Rain Light Rain
2:53 PM 82.0 °F 84.1 °F 66.0 °F 58% 29.87 in 10.0 mi South 11.5 mph - 0.00 in   Partly Cloudy
3:53 PM 84.9 °F 86.1 °F 64.0 °F 49% 29.83 in 10.0 mi South 13.8 mph - N/A   Clear
4:53 PM 88.0 °F 87.6 °F 60.1 °F 39% 29.81 in 10.0 mi South 15.0 mph - N/A   Clear
5:53 PM 87.1 °F 86.5 °F 59.0 °F 39% 29.82 in 10.0 mi SE 8.1 mph - N/A   Mostly Cloudy
6:40 PM 82.4 °F 83.9 °F 64.4 °F 54% 29.93 in 10.0 mi SE 10.4 mph - 0.00 in Rain , Thunderstorm Light Rain
6:53 PM 80.1 °F 82.1 °F 66.0 °F 62% 29.86 in 10.0 mi ESE 5.8 mph - 0.00 in Rain , Thunderstorm Light Rain
8:00 PM 71.6 °F - 66.2 °F 83% 29.89 in 10.0 mi ESE 18.4 mph - N/A Rain , Thunderstorm Light Thunderstorms and Rain
8:32 PM 69.8 °F - 62.6 °F 78% 29.90 in 10.0 mi ESE 20.7 mph - N/A Rain , Thunderstorm Light Rain
8:42 PM 69.8 °F - 62.6 °F 78% 29.90 in 10.0 mi ESE 18.4 mph - N/A Thunderstorm Mostly Cloudy
8:53 PM - - - N/A% 29.90 in 10.0 mi ESE 18.4 mph - N/A Thunderstorm Thunderstorm
9:21 PM - - - N/A% 29.88 in 10.0 mi SE 13.8 mph - N/A   Mostly Cloudy
9:23 PM - - - N/A% 29.92 in 10.0 mi SE 18.4 mph - N/A   Mostly Cloudy
9:53 PM - - - N/A% 29.93 in 10.0 mi SE 20.7 mph - N/A   Mostly Cloudy
10:29 PM - - - N/A% 29.96 in 10.0 mi SE 20.7 mph - N/A   Mostly Cloudy
10:53 PM - - - N/A% 29.96 in 10.0 mi SE 20.7 mph - N/A   Mostly Cloudy
11:53 PM - - - N/A% 29.96 in 10.0 mi SSE 20.7 mph - N/A   Mostly Cloudy